This is the latest recevied weather packets stored in our database for station/object W2JGA. If no packets are shown the sender has not sent any weather packets the latest 10 day(s).
| Time | Temp. | Humidity | Pressure | Rain* | Wind** | Luminosity | Snow |
|---|---|---|---|---|---|---|---|
| 1777527389 | 21.67° C | 20% | 1016.5 hPa | 0 mm | - | 0 W/m² | - |
| 1777527085 | 22.22° C | 18% | 1016.5 hPa | 0 mm | - | 0 W/m² | - |
| 1777526780 | 22.78° C | 18% | 1016.5 hPa | 0 mm | - | 0 W/m² | - |
| 1777526475 | 23.33° C | 17% | 1016.5 hPa | 0 mm | - | 0 W/m² | - |
| 1777526170 | 23.33° C | 17% | 1016.8 hPa | 0 mm | - | 0 W/m² | - |
| 1777525866 | 23.89° C | 17% | 1016.5 hPa | 0 mm | - | 0 W/m² | - |
| 1777525565 | 23.89° C | 17% | 1016.5 hPa | 0 mm | - | 0 W/m² | - |
| 1777525262 | 23.89° C | 16% | 1016.5 hPa | 0 mm | - | 0 W/m² | - |
| 1777524957 | 23.89° C | 16% | 1016.5 hPa | 0 mm | - | 0 W/m² | - |
| 1777524655 | 23.89° C | 16% | 1016.5 hPa | 0 mm | - | 0 W/m² | - |
| 1777524353 | 23.89° C | 16% | 1016.5 hPa | 0 mm | - | 0 W/m² | - |
| 1777524048 | 23.89° C | 16% | 1016.5 hPa | 0 mm | - | 0 W/m² | - |
| 1777523745 | 24.44° C | 16% | 1016.5 hPa | 0 mm | - | 0 W/m² | - |
| 1777523441 | 23.89° C | 16% | 1016.5 hPa | 0 mm | - | 0 W/m² | - |
| 1777523138 | 24.44° C | 16% | 1016.5 hPa | 0 mm | - | 0 W/m² | - |
| 1777522833 | 24.44° C | 16% | 1016.5 hPa | 0 mm | - | 0 W/m² | - |
| 1777522531 | 24.44° C | 16% | 1016.5 hPa | 0 mm | - | 0 W/m² | - |
| 1777522228 | 24.44° C | 16% | 1016.1 hPa | 0 mm | - | 0 W/m² | - |
| 1777521925 | 24.44° C | 16% | 1016.5 hPa | 0 mm | - | 0 W/m² | - |
| 1777521621 | 24.44° C | 16% | 1016.5 hPa | 0 mm | - | 0 W/m² | - |
| 1777521319 | 25° C | 16% | 1016.1 hPa | 0 mm | - | 0 W/m² | - |
| 1777521015 | 25° C | 16% | 1015.8 hPa | 0 mm | - | 0 W/m² | - |
| 1777520713 | 25° C | 16% | 1016.1 hPa | 0 mm | - | 0 W/m² | - |
| 1777520409 | 25° C | 16% | 1016.1 hPa | 0 mm | - | 0 W/m² | - |
| 1777520107 | 25° C | 16% | 1015.8 hPa | 0 mm | - | 0 W/m² | - |
* Rain latest hour (hover to see other rain measurements)
** Current wind speed in m/s (hover to see current wind gust speed)